RH
45 29 28 29 26 27 25 24 22 24 22 16 9 7 7 6 6 8 12 11 11 9 7 10 9 9 11 12 10 10 8 10 15 17 18 19 19 18 17 19 43 40 36 32 33
33 31 32 36 33 21 28 23 21 19 19 12 10 8 7 6 6 10 12 12 9 7 8 8 8 9 10 11 9 10 10 10 11 17 20 21 21 18 14 15 21 41 42 36 36
63 17 41 45 41 21 18 22 20 16 14 14 11 9 9 8 9 19 14 11 9 7 6 7 8 9 10 11 11 10 12 12 11 13 14 15 16 15 11 13 17 20 40 41 36
54 28 17 46 45 23 21 22 18 17 15 13 12 11 10 10 12 15 12 11 8 6 7 7 8 9 11 12 11 8 13 15 14 13 14 15 14 13 10 13 14 15 17 40 42
32 43 18 31 46 28 24 22 20 20 22 20 16 12 12 13 15 14 12 11 8 7 8 7 9 9 10 12 11 10 12 12 14 16 14 15 15 15 12 10 12 12 14 20 42
27 26 44 18 48 40 24 24 18 18 22 23 23 17 13 16 14 16 13 11 10 8 8 8 9 9 10 12 11 12 13 14 14 13 14 16 16 14 16 16 11 11 10 13 19
6 14 26 49 31 50 26 25 20 16 18 21 22 21 20 17 16 17 14 12 10 8 7 7 7 8 9 10 10 10 11 13 18 19 13 14 12 12 18 20 13 12 16 13 13
6 6 10 46 40 40 49 24 24 17 15 16 20 20 20 17 17 16 14 13 10 8 8 7 7 7 7 7 7 9 10 13 16 20 19 17 11 15 15 15 18 15 15 18 16
7 5 5 14 51 41 46 43 24 21 16 14 15 16 16 18 17 16 14 10 9 8 7 7 7 7 7 8 8 12 10 12 15 17 18 16 12 16 16 14 14 16 12 11 17
3 6 4 5 39 54 41 50 34 23 20 17 15 13 14 14 14 10 8 7 7 7 8 8 8 8 8 13 11 9 7 8 10 14 14 14 10 14 15 15 15 15 14 10 13
3 3 4 4 8 64 60 37 50 26 24 23 18 15 12 13 12 10 9 10 10 12 12 10 9 11 14 14 13 12 12 11 12 15 16 15 12 11 15 13 15 15 14 12 12
3 3 3 4 7 23 62 54 42 46 24 25 22 19 16 12 11 10 10 13 15 14 14 14 14 17 19 19 20 19 18 17 17 17 17 16 14 13 13 14 15 18 17 14 14
3 2 3 4 7 40 52 59 46 46 43 24 25 24 20 16 13 14 15 16 16 17 18 18 19 19 20 21 23 25 24 24 23 22 21 19 14 16 15 14 16 19 23 24 20
5 3 3 4 4 11 22 56 59 36 47 42 24 23 25 24 20 19 18 18 18 19 19 18 18 16 16 18 25 23 24 26 25 24 21 23 15 14 18 17 17 17 25 27 29
6 4 4 3 4 84 77 56 48 44 44 46 41 28 21 23 24 24 22 21 20 18 15 12 12 12 16 27 33 32 32 32 39 34 27 23 23 10 15 17 17 29 23 31 30
5 6 4 3 68 100 100 94 98 84 30 40 43 43 37 26 19 19 18 17 18 20 19 19 26 31 32 35 21 15 19 24 16 23 44 33 30 16 16 19 18 26 38 29 26
18 7 5 4 63 100 100 100 100 90 61 30 35 39 43 40 37 36 33 32 32 30 29 30 32 36 38 21 24 37 29 20 21 37 42 58 57 24 21 20 21 21 38 41 28
67 6 5 61 100 100 100 100 100 91 77 34 29 28 29 29 31 34 31 30 32 34 34 36 35 41 36 29 44 25 30 26 90 100 97 98 67 31 29 28 28 29 38 42 38
71 7 5 50 96 100 100 100 92 89 64 50 28 24 25 23 22 22 29 34 34 36 36 32 35 38 34 51 52 31 29 48 96 100 100 92 64 43 37 38 37 39 38 44 36
74 6 4 90 82 100 99 93 100 88 59 54 31 27 26 23 21 28 27 28 36 33 30 37 36 44 61 69 64 41 37 40 55 95 98 83 58 46 46 48 39 33 33 41 39
48 7 88 100 100 100 99 100 77 71 56 47 41 34 30 23 26 26 33 35 31 28 44 55 55 65 75 73 70 53 54 77 64 79 100 80 65 50 41 36 32 29 24 35 40
30 9 99 100 100 100 100 90 77 58 57 36 22 22 23 25 25 35 37 34 29 47 64 82 67 53 50 73 91 94 99 100 98 92 63 64 33 45 40 53 52 26 26 24 38
98 89 66 82 82 99 62 87 92 90 50 21 14 14 20 28 30 38 34 32 47 81 85 79 65 68 65 86 100 100 100 100 100 100 82 76 34 66 62 52 78 46 31 24 36
100 100 100 70 94 98 91 100 96 82 54 17 12 16 30 33 36 33 26 49 88 76 61 64 73 84 84 97 100 100 100 100 100 82 95 63 67 68 78 67 80 99 49 35 40
100 85 85 88 100 100 98 100 100 88 65 25 25 34 36 40 34 22 46 77 90 74 89 74 85 81 93 100 97 92 58 46 39 40 54 64 70 99 61 72 100 89 65 60 48
100 68 69 89 99 94 73 82 89 87 53 49 46 39 44 35 24 36 45 77 88 94 93 88 96 93 100 97 88 68 60 27 26 35 66 68 78 65 99 94 85 97 72 69 64
92 72 68 80 100 100 99 100 85 63 62 53 49 46 34 19 22 59 40 76 100 92 90 92 89 84 93 99 99 96 100 83 79 94 97 99 95 100 100 99 93 93 100 100 96
Wind_Speed
31 32 34 34 33 34 33 35 36 38 41 43 44 45 44 46 44 41 37 39 39 38 35 33 31 31 31 29 29 29 32 24 23 25 27 32 35 35 34 35 39 37 34 32 31
31 34 36 35 33 34 34 35 35 36 39 38 40 43 43 44 44 41 40 38 37 37 35 34 32 32 31 30 30 31 31 20 21 26 30 35 39 39 35 34 37 42 37 36 36
34 34 35 36 35 33 34 36 36 37 40 39 39 41 42 43 42 41 38 36 36 37 33 33 33 31 30 29 27 28 25 23 22 25 29 34 38 41 36 33 33 36 42 38 38
30 35 35 37 35 34 34 36 35 34 37 37 38 40 40 40 42 39 39 36 36 34 31 32 32 29 27 28 25 24 23 25 25 27 29 31 37 40 35 28 33 35 35 41 38
31 32 38 36 38 35 35 35 35 34 34 34 34 37 38 38 38 37 40 38 35 31 30 31 29 28 25 24 24 23 24 25 26 31 33 33 33 36 35 27 32 33 35 35 41
35 33 39 37 41 36 36 36 35 33 33 33 32 34 35 36 37 35 37 35 31 31 30 31 28 26 24 22 24 25 25 26 25 27 30 37 36 45 35 33 33 31 31 32 34
36 37 35 43 37 41 36 39 36 34 33 32 31 31 32 35 35 34 34 34 32 31 30 29 27 26 25 25 25 26 27 27 25 26 28 32 40 44 39 42 38 32 29 30 31
39 39 39 41 42 39 40 38 38 35 33 31 29 28 28 32 33 34 33 33 31 29 28 27 26 25 25 25 26 27 27 26 27 29 28 30 31 42 42 43 42 38 37 33 31
50 42 42 39 47 43 41 39 39 37 34 31 29 28 27 29 30 31 30 31 30 28 26 26 25 25 26 27 27 26 28 29 31 31 32 31 32 34 44 46 46 46 45 40 36
55 52 44 45 45 46 43 44 38 39 35 31 30 29 27 27 27 28 27 27 26 25 24 24 25 26 27 25 27 31 34 34 36 35 36 35 37 32 39 48 49 48 47 45 39
56 55 50 48 50 50 49 44 43 38 35 35 32 30 28 28 28 27 27 25 24 22 22 25 26 23 25 28 30 33 35 38 39 40 40 39 44 41 36 42 48 50 49 47 43
51 57 56 53 54 54 53 46 41 40 39 39 35 32 30 29 27 27 27 23 22 22 23 24 24 25 28 31 33 36 39 40 43 44 48 48 49 46 40 38 45 48 49 47 45
42 56 61 59 59 53 53 48 41 43 41 40 38 35 33 31 29 27 25 24 24 24 24 26 28 31 34 37 39 41 44 47 49 51 51 54 54 48 45 43 43 48 48 46 46
36 49 58 63 62 57 54 51 44 40 45 40 39 39 37 33 31 29 28 27 26 27 29 32 33 35 38 41 43 46 49 52 55 58 58 57 63 55 47 45 46 45 49 46 48
32 42 53 59 58 46 44 50 44 42 44 45 41 36 35 37 34 31 30 30 30 31 32 34 35 38 40 41 47 51 55 59 62 64 64 61 66 60 55 46 44 47 47 47 47
26 37 47 54 55 49 43 34 47 48 46 42 41 36 34 33 31 31 30 28 28 30 32 33 37 38 41 44 48 52 57 63 67 68 72 65 67 58 57 54 46 46 45 49 48
19 36 44 52 59 42 43 49 42 41 44 38 35 35 32 30 28 27 28 28 30 32 33 35 37 40 41 43 50 55 56 55 58 64 70 66 66 59 56 59 53 47 45 47 51
19 34 44 60 58 47 45 49 51 40 43 37 29 30 29 28 28 29 30 30 28 28 34 36 36 39 40 46 48 47 54 49 46 46 49 53 64 58 58 57 59 51 46 47 50
15 28 42 66 55 45 46 52 43 36 37 37 33 28 25 24 25 27 26 21 26 31 33 35 38 40 39 41 39 37 57 33 40 37 41 43 51 54 56 58 57 51 47 43 51
4 27 47 64 54 49 45 46 34 33 39 38 34 28 25 25 26 22 21 24 26 28 32 37 34 31 32 36 38 44 48 38 38 39 48 45 38 44 49 46 48 49 45 43 44
7 34 65 49 60 48 44 50 49 30 35 38 33 28 28 30 24 20 20 23 24 30 31 29 28 26 30 35 40 41 44 41 37 40 42 38 33 21 25 28 40 48 47 43 47
11 33 54 40 41 41 35 38 38 32 32 36 36 34 33 30 22 19 20 23 27 24 21 22 28 24 22 32 38 39 40 38 36 36 37 39 36 37 33 23 26 39 43 43 49
32 35 50 44 52 38 32 34 27 25 29 35 37 34 34 27 21 19 18 24 19 16 16 21 19 22 21 28 31 38 36 31 22 30 31 31 23 18 17 28 29 30 33 39 50
36 24 45 47 44 40 29 31 28 25 27 35 36 34 30 20 21 16 20 17 10 14 18 17 13 21 22 26 35 34 25 25 25 25 18 12 11 5 10 21 25 19 40 45 44
24 31 36 38 32 28 35 26 25 23 27 32 33 31 25 21 20 17 16 6 7 11 15 13 9 13 13 12 17 23 17 10 12 9 6 12 4 11 20 25 20 24 32 34 39
20 29 33 28 32 22 24 27 24 22 23 23 24 27 20 20 17 15 12 4 4 8 8 7 8 13 13 13 9 12 10 10 6 1 3 5 5 11 17 22 21 26 34 38 37
22 25 30 32 29 21 15 18 21 21 18 19 20 19 20 17 15 16 10 8 1 2 7 9 12 12 16 21 19 13 11 6 5 5 4 12 18 14 16 25 29 29 35 29 30
Wind_Direction
269 269 267 266 268 267 262 255 251 252 248 244 245 244 243 244 240 235 231 238 247 250 250 246 249 253 254 257 257 258 257 258 254 240 235 244 251 249 245 238 240 241 237 235 239
259 262 265 264 261 260 260 259 252 247 246 239 240 242 242 242 239 235 229 236 245 249 247 247 248 252 255 256 261 259 261 258 245 237 231 237 246 249 247 246 240 241 240 235 237
258 263 260 259 261 259 256 255 253 249 244 238 238 238 239 239 237 236 232 235 240 242 243 245 247 250 253 254 259 262 260 253 238 232 231 235 241 248 248 247 248 246 241 240 241
272 257 260 253 257 256 251 250 249 246 244 237 234 233 235 236 235 233 232 231 233 237 241 242 247 246 250 254 258 265 259 252 245 240 244 243 244 250 255 254 252 252 250 243 243
276 273 259 258 250 253 247 245 245 245 243 237 231 230 229 231 230 227 229 226 232 236 238 240 242 244 249 255 261 267 262 259 249 250 250 251 251 254 256 259 255 252 250 246 242
270 268 260 258 246 249 246 241 243 241 241 238 232 228 227 227 226 224 228 230 230 232 232 236 237 242 245 250 256 261 261 259 259 253 253 249 246 250 252 258 254 253 256 252 248
275 264 264 251 250 245 246 241 239 239 238 237 233 226 224 224 223 221 224 230 227 228 229 229 233 239 243 247 253 259 264 265 260 254 256 254 247 247 244 248 249 250 250 252 250
271 265 256 251 247 247 242 241 238 237 235 234 233 227 225 221 220 220 221 224 229 227 231 232 234 240 245 253 257 261 266 271 268 262 258 258 260 246 247 246 248 250 253 251 247
262 260 253 245 242 243 242 238 237 235 234 231 231 228 223 218 216 217 217 221 225 227 227 232 236 241 248 255 260 265 264 262 263 264 263 263 270 250 247 245 245 249 253 255 249
257 251 245 240 238 235 242 235 234 233 232 233 232 230 225 220 216 216 216 220 221 226 230 235 242 248 255 260 260 262 267 268 269 267 268 268 273 262 251 247 245 247 249 252 256
244 240 234 232 232 231 234 236 230 230 230 231 230 229 227 224 222 219 220 220 227 233 238 244 250 254 257 259 263 265 266 267 268 270 267 266 269 268 255 252 245 245 247 251 257
235 228 222 219 225 228 228 232 231 227 228 228 229 229 229 228 225 224 226 228 232 236 242 247 256 263 267 269 269 270 270 270 269 269 268 265 265 266 263 257 250 244 244 247 252
231 222 216 211 214 221 223 227 230 228 227 228 226 228 228 229 229 229 232 234 239 246 252 260 266 271 271 271 271 271 272 271 270 267 269 269 263 262 261 261 255 247 245 243 245
232 220 215 210 209 215 221 223 223 229 227 226 225 224 228 229 232 235 237 243 249 254 260 265 270 272 273 276 278 277 276 274 271 269 269 267 267 260 259 258 258 252 245 241 243
227 218 213 209 202 197 215 221 222 225 228 223 225 224 229 231 233 240 244 248 257 261 266 271 271 273 277 282 281 282 280 277 272 268 265 263 263 257 257 257 256 254 248 241 239
226 212 210 202 183 189 202 203 224 226 226 225 222 224 227 233 236 240 247 252 257 263 266 271 274 278 284 286 288 289 291 291 282 268 263 260 258 255 258 258 249 249 248 241 237
263 208 202 190 177 176 188 209 226 220 220 222 223 224 226 230 234 241 245 253 259 264 269 272 278 281 283 281 290 297 304 299 281 263 261 258 254 255 253 254 250 245 241 239 237
308 206 192 171 172 188 187 199 220 224 217 219 218 220 226 232 236 242 248 252 263 269 275 278 281 284 283 290 294 309 312 303 278 271 271 262 250 248 248 249 252 244 240 234 232
325 198 182 176 175 184 183 198 212 217 213 217 219 221 225 229 233 237 248 257 265 269 275 282 286 287 288 290 304 305 307 295 281 268 271 270 261 245 243 245 246 245 237 234 232
324 179 169 168 176 194 186 197 208 207 211 212 217 220 227 232 236 243 249 257 265 273 281 286 285 291 293 301 305 298 293 290 278 274 261 267 273 258 252 263 252 250 234 225 231
196 174 165 162 179 181 189 204 211 208 206 211 211 217 224 235 240 239 249 261 266 281 286 286 295 303 308 307 299 294 292 287 272 266 270 276 274 262 260 255 250 246 238 220 225
181 185 175 171 179 181 188 197 198 209 215 211 210 215 224 233 235 240 256 267 278 287 284 301 306 316 306 302 297 290 292 284 276 273 270 276 265 260 259 251 220 234 238 220 220
139 151 182 179 180 194 185 177 190 205 208 207 210 215 225 234 234 246 263 273 290 293 306 298 315 307 321 330 321 315 311 295 298 285 270 276 287 294 235 233 217 208 199 212 214
150 129 168 175 181 187 180 187 197 211 207 203 208 214 225 226 235 246 262 281 286 300 302 299 311 313 333 332 331 321 312 309 297 307 321 301 301 275 226 212 212 220 197 195 206
141 158 166 181 167 180 190 198 210 212 202 202 207 217 222 226 237 247 269 241 301 305 315 323 321 343 354 343 341 344 347 314 288 316 342 341 321 214 207 197 185 201 192 182 189
163 166 173 170 177 167 186 203 205 196 197 206 209 213 212 229 233 253 240 231 287 319 353 356 19 6 354 358 354 336 344 327 334 16 181 307 233 193 132 132 160 172 170 172 180
167 185 178 179 172 180 179 187 186 183 186 199 206 206 215 224 235 245 218 218 51 51 44 2 3 12 12 16 17 344 339 24 49 67 78 88 155 113 108 111 152 167 170 165 174